Overview Statistics Trail Chart Weather Telemetry Raw packets
 

This is the latest recevied weather packets stored in our database for station/object KC4GS-13. If no packets are shown the sender has not sent any weather packets the latest 10 day(s).

<< 12 13 14 15 16 17 18 >>
Time Temp. Humidity Pressure Rain* Wind** Luminosity Snow
1788537103 30.56° C 72% 1019.3 hPa 0 mm - 245 W/m² -
1788536802 30° C 74% 1019.4 hPa 0 mm - 171 W/m² -
1788536496 30.56° C 74% 1019.5 hPa 0 mm - 118 W/m² -
1788536192 30° C 76% 1019.4 hPa 0 mm - 311 W/m² -
1788535887 30° C 76% 1019.4 hPa 0 mm - 141 W/m² -
1788535583 29.44° C 77% 1019.2 hPa 0 mm - 459 W/m² -
1788535279 28.89° C 80% 1019.2 hPa 0 mm - 225 W/m² -
1788534974 28.89° C 80% 1019.3 hPa 0 mm - 154 W/m² -
1788534672 28.89° C 80% 1019.7 hPa 0 mm - 130 W/m² -
1788534368 28.89° C 80% 1019.4 hPa 0 mm - 141 W/m² -
1788534063 28.89° C 80% 1019.3 hPa 0 mm - 168 W/m² -
1788533761 28.89° C 82% 1019.2 hPa 0 mm - 195 W/m² -
1788533457 28.33° C 84% 1019.4 hPa 0 mm - 184 W/m² -
1788533153 27.78° C 85% 1019.3 hPa 0 mm - 153 W/m² -
1788532848 27.78° C 85% 1019.2 hPa 0 mm - 150 W/m² -
1788532544 27.78° C 87% 1019.1 hPa 0 mm - 111 W/m² -
1788532240 26.67° C 88% 1019 hPa 0 mm - 126 W/m² -
1788531937 26.67° C 90% 1019.1 hPa 0 mm - 95 W/m² -
1788531632 26.67° C 90% 1019.3 hPa 0 mm - 65 W/m² -
1788531327 26.67° C 91% 1019.2 hPa 0 mm - 100 W/m² -
1788531022 26.11° C 91% 1019.1 hPa 0 mm - 95 W/m² -
1788530716 26.11° C 92% 1019 hPa 0 mm - 97 W/m² -
1788530416 26.11° C 92% 1019.2 hPa 0 mm - 134 W/m² -
1788530116 26.11° C 92% 1019.2 hPa 0 mm - 140 W/m² -
1788529812 26.11° C 93% 1018.9 hPa 0 mm - 131 W/m² -

* Rain latest hour (hover to see other rain measurements)
** Current wind speed in m/s (hover to see current wind gust speed)